This demonstration page uses our WeatherBlox Daily Observations layout. Learn more.

Left ArrowRight Arrow

41.55636, -103.73856

Hourly Observations for December 8, 2021

Temp ( °F °C ) Dew Point ( °F °C ) Humidity (%) Winds ( mph kmh ) Pressure ( in mb ) Visibility ( mi km ) Precip ( " mm )
12:58 am 00:58 Clear 33 0.5 20 -6.7 59 59 NW 13 20 29.91 1013 10 16 N/A
1:58 am 01:58 Clear 38 3.1 22 -5.8 52 52 WNW 18 30 29.88 1012 10 16 N/A
2:58 am 02:58 Clear 32 0.1 21 -6.3 62 62 WSW 9 15 29.90 1013 10 16 N/A
3:58 am 03:58 Clear 33 0.7 20 -6.4 59 59 W 9 15 29.87 1012 10 16 N/A
4:58 am 04:58 Clear 31 -0.8 20 -6.8 64 64 WSW 7 11 29.88 1012 10 16 N/A
5:58 am 05:58 Clear 33 0.7 19 -7.5 55 55 S 6 9 29.88 1012 10 16 N/A
6:58 am 06:58 Clear 32 -0.2 18 -7.8 57 57 SW 12 19 29.88 1012 10 16 N/A
7:58 am 07:58 Sunny 34 1.1 18 -8 51 51 SW 17 28 29.85 1011 10 16 N/A
8:58 am 08:58 Sunny 41 4.8 17 -8.2 39 39 SW 26 43 29.81 1010 10 16 N/A
9:58 am 09:58 Sunny 47 8.5 19 -7.2 32 32 SSW 26 43 29.77 1008 10 16 N/A
10:58 am 10:58 Sunny 51 10.6 18 -7.8 27 27 SSW 30 48 29.72 1007 10 16 N/A
11:58 am 11:58 Sunny 52 11.1 17 -8.4 25 25 SW 21 33 29.68 1005 10 16 N/A
12:58 pm 12:58 Sunny 53 11.4 16 -8.9 23 23 SW 22 35 29.63 1003 10 16 N/A
1:58 pm 13:58 Sunny 54 12.4 15 -9.7 21 21 SW 17 28 29.57 1001 10 16 N/A
2:58 pm 14:58 Sunny 53 11.7 12 -11.2 19 19 SSW 13 20 29.57 1001 10 16 N/A
3:58 pm 15:58 Mostly Cloudy 49 9.5 12 -11.2 22 22 SW 10 17 29.57 1001 10 16 N/A
4:58 pm 16:58 Mostly Cloudy 45 7.4 12 -11.2 26 26 WSW 7 11 29.59 1002 10 16 N/A
5:58 pm 17:58 Cloudy 43 5.9 14 -10.1 31 31 NNW 3 6 29.59 1002 10 16 N/A
6:58 pm 18:58 Mostly Cloudy 42 5.7 14 -10.2 31 31 SW 7 11 29.58 1002 10 16 N/A
7:58 pm 19:58 Mostly Cloudy 41 4.8 18 -7.9 40 40 W 15 24 29.55 1001 10 16 N/A
8:58 pm 20:58 Mostly Cloudy 42 5.3 19 -7.4 40 40 WSW 12 19 29.49 999 10 16 N/A
9:58 pm 21:58 Mostly Cloudy 49 9.7 19 -7.5 29 29 WNW 22 35 29.47 998 10 16 N/A
10:58 pm 22:58 Mostly Cloudy 50 9.8 20 -6.9 30 30 W 18 30 29.47 998 10 16 N/A
11:58 pm 23:58 Mostly Cloudy 49 9.6 22 -5.8 34 34 WNW 25 41 29.47 998 10 16 N/A

Powered by AerisWeather